Skip Navigation Linkswww.weather.gov 
NOAA logo - Click to go to the NOAA homepage National Weather Service Forecast Office   NWS logo - Click to go to the NWS homepage    
Los Angeles, California
navigation bar decoration      
spacer
Printer Friendly  |   Go Back  |  Version: Current   1   2   3   4   5   6   7   8   9   10   |  Font:  A A A  |  

HOURLY WEATHER ROUNDUP
 
 ASUS46 KSTO 310309
RWRCA

NORTHERN AND CENTRAL CA REGIONAL WEATHER ROUNDUP
NATIONAL WEATHER SERVICE SACRAMENTO CA
800 PM PDT MON MAR 30 2015

NOTE: FAIR INDICATES FEW OR NO CLOUDS BELOW 12,000 FEET WITH NO
SIGNIFICANT WEATHER AND/OR OBSTRUCTIONS TO VISIBILITY.

CAZ001-003-310400-
NORTHWEST AREA

CITY SKY/WX TMP DP RH WIND PRES REMARKS
CRESCENT CITY CLEAR 51 48 89 SE5 30.11S
ARCATA NOT AVBL
SHELTER COVE NOT AVBL
UKIAH PTCLDY 63 33 32 N9 30.05R
$$

CAZ006-505>513-310400-
BAY AREA

CITY SKY/WX TMP DP RH WIND PRES REMARKS
SANTA ROSA MOCLDY 58 49 72 SE3 30.00R
SAN RAFAEL N/A 60 MM MM MISG
NAPA MOCLDY 55 47 74 CALM 30.00R
CONCORD MOCLDY 60 48 64 S13 30.01R
OAKLAND CITY N/A 59 MM MM MISG
OAKLAND MOCLDY 57 48 72 W14 30.05S
SAN FRAN CITY N/A 55 MM 78 MISG
SAN FRAN ARPT MOCLDY 57 53 86 W25G31 30.06S
LIVERMORE MOCLDY 58 49 72 SW3 30.04R
HAYWARD MOCLDY 59 49 69 W9 30.06S
REDWOOD CITY N/A MM MM MM MISG
MOFFETT ARPT MOCLDY 59 45 59 N10 30.07R
SAN JOSE ARPT MOCLDY 59 47 64 NW9 30.06R
$$
CAZ034-037-514>518-310400-
CENTRAL COAST

CITY SKY/WX TMP DP RH WIND PRES REMARKS
WATSONVILLE MOCLDY 58 50 75 E6 30.06R
SALINAS PTCLDY 59 47 64 W7 30.07R
MONTEREY PTCLDY 55 48 77 SW7 30.09R
PT PIEDRAS BLS NOT AVBL
SAN LUIS OBISP CLEAR 54 50 86 NW7 30.01R
SANTA MARIA CLEAR 55 51 86 NW8 30.02R
$$
CAZ015-016-310400-
NORTHERN SACRAMENTO VALLEY

CITY SKY/WX TMP DP RH WIND PRES REMARKS
REDDING MOCLDY 72 51 47 SW3 29.89S
RED BLUFF MOCLDY 73 51 46 S3 29.90S
OROVILLE MOCLDY 75 44 33 SE9 29.93R
$$
CAZ016>018-310400-
SOUTHERN SACRAMENTO VALLEY

CITY SKY/WX TMP DP RH WIND PRES REMARKS
AUBURN MOCLDY 70 46 43 CALM 29.99S
BEALE AFB MOCLDY 65 54 67 S8 29.91R
LINCOLN FAIR 66 50 55 S9 29.92S
MARYSVILLE MOCLDY 71 51 49 S12 29.92R
SAC INTL ARPT MOCLDY 65 49 56 S10 29.93S
MATHER AIRPORT MOCLDY 63 50 63 SW9 29.95S
DOWNTOWN SAC N/A 67 MM MM MISG
SAC EXEC ARPT MOCLDY 65 46 50 SW9 29.95S
VACAVILLE MOCLDY 65 46 50 SW9 29.96R
TRAVIS AFB MOCLDY 60 47 61 SW23G30 29.94S
$$
CAZ019>021-310400-
SAN JOAQUIN VALLEY

CITY SKY/WX TMP DP RH WIND PRES REMARKS
STOCKTON MOCLDY 65 47 52 W13 29.97R
MODESTO MOCLDY 72 31 22 NW15 29.95R
MERCED PTCLDY 74 46 36 NW10 29.94R
LEMOORE PTCLDY 78 31 17 NW10 29.93R
FRESNO PTCLDY 80 32 17 NW9 29.92R
HANFORD PTCLDY 80 35 19 NW6 29.92R
PORTERVILLE CLEAR 73 48 40 CALM 29.93R
BAKERSFIELD CLEAR 77 36 22 NW5 29.92R
$$
CAZ011-012-071-310400-
NORTHERN MOUNTAINS

CITY SKY/WX TMP DP RH WIND PRES REMARKS
YREKA CLOUDY 60 32 34 S8 29.95S
MOUNT SHASTA CLOUDY 62 38 40 VRB3 29.99S
ALTURAS MOCLDY 59 30 33 SW6 30.02S
$$
CAZ011-012-071-310400-
SIERRA NEVADA MTNS

CITY SKY/WX TMP DP RH WIND PRES REMARKS
BLUE CANYON MOCLDY 54 35 48 E3 30.15S
TRUCKEE CLOUDY 54 34 47 W7 30.14S
TAHOE VLY ARPT MOCLDY 59 38 45 S14 30.15R
MAMMOTH LAKES FAIR 59 23 25 S14G21 30.19R
$$



Webmaster
US Dept of Commerce
National Oceanic and Atmospheric Administration
National Weather Service
Los Angeles/Oxnard Weather Forecast Office
520 North Elevar Street
Oxnard, CA 93030

Tel: (805) 988-6610

Disclaimer
Information Quality
Credits
Glossary
Organization
Privacy Policy
Freedom of Information Act
About Us
Career Opportunities